User: anonymous   Login
Location: Unspecified
(0.0000°N, 0.0000°E)
Time: 07:48:37
(UTC+00:00)
Language:

RS-6 - Orbit

View from above orbital plane
View from above orbital plane
View from above satellite
View from above satellite

Ground track
Ground track

The orbit data is extracted from the following two-line orbital elements,

1 13000U 81120D   21067.84698885  .00000082  00000-0  82367-3 0  9997
2 13000  82.9646  30.5889 0018223 173.4457 244.5190 12.06883448727826
Epoch (UTC): 08 March 2021 20:19:39
Eccentricity: 0.0018223
inclination: 82.9646°
perigee height: 1635 km
apogee height: 1665 km
right ascension of ascending node: 30.5889°
argument of perigee: 173.4457°
revolutions per day: 12.06883448
mean anomaly at epoch: 244.5190°
orbit number at epoch: 72782

The dashed part of the orbit path shows where the satellite is in the earth's shadow,  

DLR